CAPE
61 31 0 0 0 0 0 0 0 0 0 0 0 0 0 0 0 0 0 0 0 0 0 0 0 0 0 0 0 0 0 0 0 0 0 0 0 0 0 0 0 0 0 0
44 9 0 0 0 0 0 0 0 0 0 0 0 0 0 0 0 0 0 0 0 0 0 0 0 0 0 0 0 0 0 0 0 0 0 0 0 0 0 0 0 0 0 0
7 0 5 2 0 0 0 2 3 0 0 0 0 0 0 0 0 0 0 0 0 0 0 0 0 0 0 0 0 0 0 0 0 0 0 0 0 0 0 0 0 0 0 0
15 8 1 10 2 5 2 1 2 10 1 0 0 0 0 0 0 0 0 0 0 0 0 0 0 0 0 0 0 0 0 0 0 0 0 0 0 0 0 0 0 0 0 0
0 2 2 17 17 9 16 0 0 7 0 0 0 1 0 0 0 0 0 0 0 0 0 0 0 0 0 0 0 0 0 0 0 0 0 0 0 0 0 0 0 0 0 0
0 0 1 1 0 8 0 1 2 1 2 0 0 0 0 0 0 0 0 0 0 0 0 0 0 0 0 0 0 0 0 0 0 0 0 0 0 0 0 0 0 0 0 0
1 1 0 2 8 0 8 11 4 4 0 0 0 0 0 0 0 0 0 0 0 0 0 0 0 0 0 0 0 0 0 0 0 0 0 0 0 0 0 0 0 0 0 0
0 2 12 9 0 0 4 1 1 0 0 0 0 0 0 0 0 0 0 0 0 0 0 0 0 0 0 0 0 0 0 0 0 0 0 0 0 0 0 0 0 0 0 0
0 0 0 13 8 1 3 0 0 0 0 0 0 0 0 0 0 0 0 0 0 0 0 0 0 0 0 0 0 0 0 0 0 0 0 0 0 0 0 0 0 0 0 0
0 0 0 1 8 1 7 0 8 5 1 0 0 0 0 0 0 0 0 0 0 0 0 0 0 0 0 0 0 0 0 0 0 0 0 0 0 0 0 0 0 0 0 0
0 0 0 0 0 0 0 4 6 2 0 0 0 0 0 0 0 0 0 0 0 0 0 0 0 0 0 0 0 0 0 0 0 0 0 0 0 0 0 0 0 0 0 0
0 0 0 0 0 0 0 0 0 4 0 0 0 0 0 0 0 0 0 0 0 0 0 0 0 0 0 0 0 0 0 0 0 0 0 0 0 0 0 0 0 0 0 0
0 0 0 0 0 0 6 1 1 2 0 0 0 0 0 0 0 0 0 0 0 0 0 0 0 0 0 0 0 0 0 0 0 0 0 0 0 0 0 0 0 0 0 0
0 0 0 0 0 0 0 0 0 3 1 0 0 0 0 0 0 0 0 0 0 0 0 0 0 0 0 0 0 0 0 0 0 0 0 0 0 0 0 0 0 0 0 0
4 0 0 0 0 0 0 0 0 0 0 0 0 0 0 0 0 0 0 0 0 0 0 0 0 0 0 0 0 0 0 0 0 0 0 0 0 0 0 0 0 0 0 0
6 0 0 0 0 0 0 0 0 0 0 0 0 0 0 0 0 0 0 0 0 0 0 0 0 0 0 0 0 0 0 0 0 0 0 0 0 0 0 0 0 0 0 1
1 0 0 0 0 0 0 0 0 0 0 0 0 0 0 0 0 0 0 0 0 0 0 0 0 0 0 0 0 0 0 0 0 0 0 0 0 0 0 0 0 0 0 0
0 0 0 0 0 0 0 0 0 0 0 0 0 0 0 0 0 0 0 0 0 0 0 0 0 0 0 0 0 0 0 0 0 0 0 0 0 0 0 0 0 0 0 0
0 0 0 0 0 0 0 0 0 0 0 0 0 0 0 0 0 0 0 0 0 0 0 0 0 0 0 0 0 0 0 0 0 0 0 0 0 0 0 0 0 0 0 0
0 0 0 0 0 0 0 0 0 0 0 0 0 0 0 0 0 0 0 0 0 0 0 0 0 0 0 0 0 0 0 0 0 0 0 0 0 0 0 0 0 0 0 0
0 0 0 0 0 0 0 0 0 0 0 0 0 0 0 0 0 0 0 0 0 0 0 0 0 0 0 0 0 0 0 0 0 0 0 0 0 0 0 0 0 0 0 0
0 0 0 0 0 0 0 0 0 0 0 0 0 0 0 0 0 0 0 0 0 0 0 0 0 0 0 0 0 0 0 0 0 0 0 0 0 0 0 0 0 0 0 0
0 0 0 0 0 0 0 0 0 0 0 0 1 0 1 0 0 1 0 0 0 0 0 0 0 0 0 0 0 0 0 0 0 0 0 0 0 0 0 0 0 0 0 0
0 0 0 0 0 0 0 0 0 0 0 0 0 0 0 0 0 2 2 3 2 0 0 0 0 0 0 0 0 0 0 0 0 0 0 0 0 0 0 0 0 0 0 0
0 0 0 0 0 0 0 0 0 0 0 0 0 0 0 0 0 3 4 2 0 1 2 1 1 0 0 1 1 1 1 0 0 0 0 0 0 0 0 0 0 0 0 0
1 0 0 0 0 1 0 0 0 0 0 0 0 0 0 0 0 2 4 0 0 0 1 2 3 1 1 2 1 1 0 0 0 0 0 0 0 0 0 2 3 1 1 1
CIN
-3 -2 -0 -0 -0 -0 -0 -0 -0 -0 -0 -0 -0 -0 -0 -0 -0 -0 -0 -0 -0 -0 -0 -0 -0 -0 -0 -0 -0 -0 -0 -0 -0 -0 -0 -0 -0 -0 -0 -0 -0 -0 -0 -0
-3 -0 -0 -0 -0 -0 -0 -0 -0 -0 -0 -0 -0 -0 -0 -0 -0 -0 -0 -0 -0 -0 -0 -0 -0 -0 -0 -0 -0 -0 -0 -0 -0 -0 -0 -0 -0 -0 -0 -0 -0 -0 -0 -0
-0 -0 -4 -3 -0 -0 -0 -0 -1 -0 -0 -0 -0 -0 -0 -0 -0 -0 -0 -0 -0 -0 -0 -0 -0 -0 -0 -0 -0 -0 -0 -0 -0 -0 -0 -0 -0 -0 -0 -0 -0 -0 -0 -0
-0 -10 -3 -4 -7 -6 -0 -4 -1 -3 -0 -0 -0 -0 -0 -0 -0 -0 -0 -0 -0 -0 -0 -0 -0 -0 -0 -0 -0 -0 -0 -0 -0 -0 -0 -0 -0 -0 -0 -0 -0 -0 -0 -0
-0 -2 -5 -5 -7 -16 -1 -0 -6 -12 -0 -0 -0 -0 -0 -0 -0 -0 -0 -0 -0 -0 -0 -0 -0 -0 -0 -0 -0 -0 -0 -0 -0 -0 -0 -0 -0 -0 -0 -0 -0 -0 -0 -0
-1 -0 -9 -12 -6 -37 -2 -1 -6 -4 -2 -0 -0 -0 -0 -0 -0 -0 -0 -0 -0 -0 -0 -0 -0 -0 -0 -0 -0 -0 -0 -0 -0 -0 -0 -0 -0 -0 -0 -0 -0 -0 -0 -0
-0 -0 -7 -12 -3 -3 -1 -0 -3 -3 -1 -0 -0 -0 -0 -0 -0 -0 -0 -0 -0 -0 -0 -0 -0 -0 -0 -0 -0 -0 -0 -0 -0 -0 -0 -0 -0 -0 -0 -0 -0 -0 -0 -0
-0 -0 -1 -11 -0 -0 -2 -3 -4 -0 -0 -0 -0 -0 -0 -0 -0 -0 -0 -0 -0 -0 -0 -0 -0 -0 -0 -0 -0 -0 -0 -0 -0 -0 -0 -0 -0 -0 -0 -0 -0 -0 -0 -0
-0 -0 -0 -14 -12 -3 -2 -0 -0 -1 -0 -0 -0 -0 -0 -0 -0 -0 -0 -0 -0 -0 -0 -0 -0 -0 -0 -0 -0 -0 -0 -0 -0 -0 -0 -0 -0 -0 -0 -0 -0 -0 -0 -0
-0 -0 -0 -5 -11 -6 -3 -3 -2 -6 -3 -1 -0 -0 -0 -0 -0 -0 -0 -0 -0 -0 -0 -0 -0 -0 -0 -0 -0 -0 -0 -0 -0 -0 -0 -0 -0 -0 -0 -0 -0 -0 -0 -0
-0 -0 -0 -0 -0 -0 -0 -0 -2 -3 -0 -0 -0 -0 -0 -0 -0 -0 -0 -0 -0 -0 -0 -0 -0 -0 -0 -0 -0 -0 -0 -0 -0 -0 -0 -0 -0 -0 -0 -0 -0 -0 -0 -0
-0 -0 -0 -0 -0 -0 -0 -0 -0 -24 -3 -0 -2 -0 -0 -0 -0 -0 -0 -0 -0 -0 -0 -0 -0 -0 -0 -0 -0 -0 -0 -0 -0 -0 -0 -0 -0 -0 -0 -0 -0 -0 -0 -0
-0 -0 -0 -0 -0 -5 -0 -2 -0 -0 -0 -0 -0 -0 -0 -0 -0 -0 -0 -0 -0 -0 -0 -0 -0 -0 -0 -0 -0 -0 -0 -0 -0 -0 -0 -0 -0 -0 -0 -0 -0 -0 -0 -0
-0 -0 -0 -0 -0 -0 -0 -0 -0 -1 -0 -0 -0 -0 -0 -0 -0 -0 -0 -0 -0 -0 -0 -0 -0 -0 -0 -0 -0 -0 -0 -0 -0 -0 -0 -0 -0 -0 -0 -0 -0 -0 -0 -0
-9 -0 -0 -0 -0 -0 -0 -0 -0 -0 -0 -0 -0 -0 -0 -0 -0 -0 -0 -0 -0 -0 -0 -0 -0 -0 -0 -0 -0 -0 -0 -0 -0 -0 -0 -0 -0 -0 -0 -0 -0 -0 -0 -0
-14 -0 -0 -0 -0 -0 -0 -0 -0 -0 -0 -0 -0 -0 -0 -0 -0 -0 -0 -0 -0 -0 -0 -0 -0 -0 -0 -0 -0 -0 -0 -0 -0 -0 -0 -0 -0 -0 -0 -0 -0 -0 -0 -0
-0 -0 -0 -0 -0 -2 -0 -0 -0 -0 -0 -0 -0 -0 -0 -0 -0 -0 -0 -0 -0 -0 -0 -0 -0 -0 -0 -0 -0 -0 -0 -0 -0 -0 -0 -0 -0 -0 -0 -0 -0 -0 -0 -0
-0 -0 -0 -0 -0 -0 -0 -0 -0 -0 -0 -0 -0 -0 -0 -0 -0 -0 -0 -0 -0 -0 -0 -0 -0 -0 -0 -0 -0 -0 -0 -0 -0 -0 -0 -0 -0 -0 -0 -0 -0 -0 -0 -0
-0 -0 -0 -0 -0 -0 -0 -0 -0 -0 -0 -0 -0 -0 -0 -0 -0 -0 -0 -0 -0 -0 -0 -0 -0 -0 -0 -0 -0 -0 -0 -0 -0 -0 -0 -0 -0 -0 -0 -0 -0 -0 -0 -0
-0 -0 -0 -0 -0 -0 -0 -0 -0 -0 -0 -0 -0 -0 -0 -0 -0 -0 -0 -0 -0 -0 -0 -0 -0 -0 -0 -0 -0 -0 -0 -0 -0 -0 -0 -0 -0 -0 -0 -0 -0 -0 -0 -0
-0 -0 -0 -0 -0 -0 -0 -0 -0 -0 -0 -0 -0 -0 -0 -0 -0 -0 -0 -0 -0 -0 -0 -0 -0 -0 -0 -0 -0 -0 -0 -0 -0 -0 -0 -0 -0 -0 -0 -0 -0 -0 -0 -0
-0 -0 -0 -0 -0 -0 -0 -0 -0 -0 -0 -0 -0 -0 -0 -0 -0 -0 -0 -0 -0 -0 -0 -0 -0 -0 -0 -0 -0 -0 -0 -0 -0 -0 -0 -0 -0 -0 -0 -0 -0 -0 -0 -0
-0 -0 -0 -0 -0 -0 -0 -0 -0 -0 -0 -0 -0 -0 -0 -0 -0 -0 -0 -0 -0 -0 -0 -0 -0 -0 -0 -0 -0 -0 -0 -0 -0 -0 -0 -0 -0 -0 -0 -0 -0 -0 -0 -0
-0 -0 -0 -0 -0 -0 -0 -0 -0 -0 -0 -0 -0 -0 -0 -0 -0 -0 -0 -0 -0 -0 -0 -0 -0 -0 -0 -0 -0 -0 -0 -0 -0 -0 -0 -0 -0 -0 -0 -0 -0 -0 -0 -0
-0 -0 -0 -0 -0 -0 -0 -0 -0 -0 -0 -0 -0 -0 -0 -0 -0 -0 -0 -0 -0 -0 -0 -0 -0 -0 -0 -0 -0 -0 -0 -0 -0 -0 -0 -0 -0 -0 -0 -0 -0 -0 -0 -0
-0 -0 -0 -0 -0 -0 -0 -0 -0 -0 -0 -0 -0 -0 -0 -0 -0 -0 -0 -0 -0 -0 -0 -0 -0 -0 -0 -0 -0 -0 -0 -0 -0 -0 -0 -0 -0 -0 -0 -0 -0 -0 -0 -0
Wind_Speed
25 31 40 36 32 30 31 36 38 34 30 35 40 43 43 41 41 41 39 37 36 39 37 31 26 18 16 16 13 11 10 10 10 13 16 19 19 19 17 16 14 13 13 12
26 37 31 27 29 31 31 34 36 31 29 35 41 49 46 43 45 42 43 42 43 43 39 36 26 20 14 14 14 16 13 12 12 12 13 17 16 18 17 16 15 14 14 14
27 29 24 27 30 33 36 39 37 40 36 37 42 53 48 42 41 42 41 43 42 38 36 39 24 17 15 14 15 16 17 16 14 14 15 16 18 20 17 18 18 18 16 16
21 20 23 28 31 29 38 32 37 37 36 45 32 54 49 43 43 39 40 37 38 36 31 31 31 20 16 14 15 16 16 17 17 16 15 15 14 14 15 16 16 16 16 16
27 22 18 23 27 24 29 23 28 31 35 40 43 47 49 37 43 40 39 40 39 38 36 34 33 14 16 15 15 15 16 17 17 18 18 17 17 16 17 17 16 16 17 17
27 20 22 27 22 19 17 23 25 27 29 46 43 43 52 43 39 34 36 38 40 37 37 36 35 31 28 20 17 17 17 18 17 18 19 20 20 19 20 19 18 18 18 18
30 26 22 19 23 22 21 23 31 35 38 48 30 40 54 41 37 36 37 37 38 34 37 40 41 40 35 29 22 16 17 20 18 19 19 21 21 22 21 20 20 20 20 19
33 33 25 24 27 25 24 25 31 39 40 41 33 46 47 36 39 39 40 42 41 41 39 39 39 39 39 36 28 20 19 18 18 19 20 20 21 21 22 22 20 21 22 22
29 33 24 25 23 22 25 30 29 35 35 42 39 43 46 44 44 41 41 38 38 36 36 39 39 39 39 36 33 28 23 24 21 19 19 19 20 21 20 20 18 17 17 22
28 31 27 26 24 24 23 19 27 29 39 45 40 43 43 33 42 41 39 37 33 32 36 40 40 40 39 37 36 33 31 28 27 24 22 20 19 20 20 22 21 20 19 18
29 29 29 25 31 30 30 30 28 27 29 38 43 41 28 26 26 27 25 22 27 30 32 35 37 37 35 34 33 32 31 32 30 27 24 23 23 22 21 21 23 23 23 21
29 29 32 31 25 26 28 29 26 29 30 29 34 45 27 31 32 29 26 30 28 30 33 34 37 36 34 33 32 31 30 30 30 28 26 24 23 23 24 24 25 25 24 24
27 30 33 32 29 26 28 27 28 30 28 39 38 43 19 18 22 27 33 37 38 38 40 40 40 36 33 31 30 29 27 27 27 27 26 25 25 24 24 25 25 25 24 24
25 31 35 43 37 29 35 33 28 29 36 37 40 60 47 48 48 49 49 51 53 48 48 46 39 34 29 26 23 22 22 22 22 24 25 25 25 26 25 25 26 26 26 26
24 35 33 31 28 28 30 31 29 34 37 41 53 55 44 42 45 47 48 49 50 48 45 45 41 35 29 26 23 20 19 19 19 19 20 21 22 22 23 24 24 24 25 25
25 27 28 34 34 35 39 37 35 36 38 44 50 63 42 44 41 45 49 51 52 53 50 47 44 37 31 26 23 23 22 21 22 22 24 24 23 23 23 23 23 23 23 24
24 26 28 36 30 30 44 41 41 42 43 45 50 60 52 48 51 52 52 51 52 52 51 48 44 41 35 28 24 24 23 23 24 24 25 26 26 25 24 23 23 22 22 21
23 24 25 29 25 40 37 29 30 33 40 40 55 58 53 53 55 57 51 55 59 55 55 50 42 40 36 27 24 21 23 24 25 26 26 25 24 24 24 23 22 21 20 20
17 21 25 30 34 41 44 36 32 34 51 43 53 53 51 52 56 58 48 52 52 53 52 51 45 37 31 24 23 23 23 24 24 24 25 25 24 22 21 21 20 20 19 18
18 21 27 29 35 44 36 30 25 29 59 36 43 46 44 45 55 52 45 48 50 51 48 48 43 34 27 23 21 23 25 24 24 23 24 24 22 20 20 19 18 18 16 15
25 27 32 33 39 46 39 34 26 38 52 38 40 43 45 46 48 54 55 56 54 51 48 41 33 29 26 23 22 24 24 23 23 22 21 19 18 17 15 15 14 13 13 13
25 27 31 30 36 52 30 31 36 37 37 39 41 44 49 50 53 52 52 54 54 51 42 33 27 23 22 21 21 21 22 21 20 19 18 17 16 14 13 11 12 11 11 12
29 27 28 28 35 28 28 28 28 34 40 42 45 47 50 54 55 55 55 54 50 44 38 30 24 22 22 22 22 22 22 19 17 16 15 14 14 12 10 10 10 12 13 15
26 25 31 31 33 33 31 29 35 41 45 47 47 51 51 56 55 57 56 52 47 40 35 30 26 24 24 22 21 22 21 18 16 15 14 12 11 12 11 12 12 13 13 13
25 26 30 36 36 36 29 33 42 46 46 49 50 50 53 54 56 54 54 50 45 38 34 31 29 27 25 23 23 22 18 15 13 12 11 11 10 10 10 11 12 12 14 13
27 29 34 40 34 37 40 41 48 48 50 51 54 55 50 49 52 50 50 46 42 37 32 29 27 24 23 21 20 20 18 14 11 10 10 9 9 10 9 9 10 13 13 14
Wind_Direction
244 246 246 249 255 260 262 260 263 269 275 272 268 267 267 272 271 272 273 276 275 265 272 284 290 292 286 280 267 248 241 243 255 266 272 275 270 271 272 271 269 267 268 270
247 245 251 253 254 256 259 261 263 273 277 273 272 267 268 271 269 271 270 271 267 257 268 278 291 292 282 265 252 266 242 252 247 257 264 277 275 273 267 266 262 263 268 269
243 258 246 249 253 254 257 258 263 267 277 279 275 265 267 272 273 272 272 269 271 275 279 275 292 283 272 272 258 252 257 261 256 255 271 278 283 285 278 272 268 266 264 267
250 258 243 248 252 254 257 261 264 269 273 265 277 263 264 269 270 274 273 276 277 280 284 287 288 288 272 253 265 249 247 249 256 253 252 243 243 245 262 266 262 260 255 259
257 251 253 251 254 255 261 265 265 270 270 271 266 266 260 273 270 274 278 276 278 279 282 286 288 264 257 257 254 240 247 253 251 254 246 250 247 255 271 276 270 260 262 257
256 266 256 252 257 258 265 267 270 272 273 263 264 263 262 267 272 279 282 281 280 281 282 282 285 291 290 283 268 260 244 240 245 246 245 245 247 258 271 272 271 272 268 267
247 251 259 255 250 257 260 264 265 264 261 261 277 265 262 273 278 282 283 283 284 286 285 283 282 281 284 288 281 265 256 239 240 234 240 244 251 260 259 266 270 274 272 271
236 244 245 251 252 256 254 258 261 263 265 269 277 267 270 279 281 282 282 281 283 283 286 286 286 285 282 282 286 279 272 254 251 240 235 237 238 255 259 263 264 269 274 274
244 245 253 249 254 253 260 257 265 272 276 275 275 277 280 282 281 284 283 284 281 287 290 290 290 288 285 283 282 283 281 279 271 256 253 251 252 242 241 243 248 252 260 277
248 248 252 250 255 260 263 267 266 267 269 268 273 276 273 284 288 287 287 285 289 293 293 295 295 291 288 284 282 281 279 281 281 277 272 267 259 261 259 265 258 261 267 269
242 249 250 250 252 251 258 264 270 276 273 271 272 273 283 285 288 303 301 300 301 303 305 304 304 300 293 289 286 284 282 279 281 280 280 276 274 270 269 267 271 268 274 272
242 248 248 254 266 263 261 263 262 267 272 278 277 270 286 279 284 296 298 298 306 304 307 310 309 307 299 292 289 287 285 284 282 281 280 280 279 277 275 273 273 276 274 274
233 249 247 254 262 267 264 264 266 272 277 270 272 269 294 299 300 297 292 290 295 301 304 306 308 307 302 297 291 290 291 287 286 285 284 283 282 282 280 280 280 279 278 277
235 250 252 254 264 265 264 264 262 263 267 270 267 255 269 272 279 282 286 289 288 289 295 299 300 301 302 301 299 296 296 297 295 290 287 287 287 286 286 286 285 285 283 281
244 250 255 261 268 271 271 270 265 260 262 267 253 271 278 282 284 286 289 290 288 286 290 293 292 295 294 294 295 296 300 302 304 301 299 298 296 296 294 292 292 292 291 289
250 257 259 263 267 270 268 267 266 266 268 270 272 258 286 287 289 286 284 284 287 288 289 288 287 289 288 290 291 291 294 299 300 301 300 300 299 299 297 296 295 295 294 294
248 256 261 264 269 271 268 264 265 267 268 270 270 244 277 284 281 278 279 287 289 290 287 287 285 286 286 285 286 287 292 296 297 300 303 302 299 299 299 299 298 296 295 297
249 255 261 265 267 265 271 278 273 271 271 273 266 262 277 280 278 269 289 286 285 288 282 284 289 286 287 280 278 285 292 293 294 296 301 303 302 301 302 301 300 300 299 299
254 255 265 265 266 271 269 273 276 279 271 277 271 275 282 284 283 275 293 292 288 284 284 284 288 289 284 273 272 278 287 290 293 296 300 302 303 302 302 301 302 303 302 303
263 269 266 271 272 270 278 284 285 289 263 288 283 285 291 291 280 285 298 299 300 296 290 289 290 286 276 267 269 275 281 285 289 295 299 302 304 304 303 303 304 307 308 310
263 269 267 271 274 274 279 284 289 279 274 293 293 292 293 289 287 291 295 293 297 299 299 297 295 286 276 268 269 274 278 281 286 294 300 301 305 308 310 310 311 312 314 315
268 268 272 275 277 273 288 287 281 288 291 296 296 296 293 293 292 295 298 299 298 298 305 303 298 294 286 276 272 274 277 282 288 294 297 300 303 306 308 308 313 315 314 316
274 277 279 275 279 290 297 296 300 301 296 296 296 297 298 294 294 295 296 300 301 301 300 303 294 291 289 286 281 278 280 283 287 290 294 300 302 305 308 309 311 311 309 308
285 292 282 286 285 288 295 299 302 302 297 298 298 297 297 293 295 293 294 296 299 299 297 296 294 290 287 289 287 284 283 285 285 286 290 295 296 301 305 308 310 312 317 318
294 296 289 286 289 295 296 303 303 301 302 299 299 297 295 295 294 293 292 293 293 296 294 290 289 286 288 290 288 288 288 284 282 285 289 291 295 300 307 312 317 324 327 326
301 295 290 288 299 296 295 302 303 301 301 301 298 296 298 297 295 294 291 292 289 287 288 287 287 289 289 290 291 291 291 289 285 284 287 291 292 298 309 317 330 340 338 336